CW3467 Sant Marti de Canals ES current weather conditions

sailwx.info

Wind from 217 at 0 knots gusting 3

Air temperature 31.7° C
Dewpoint 18.3° C

Last reported at 2014-Aug-28 12:41 UTC.
Time now 2014-Aug-28 13:26 UTC

Location: N 42°14' E 000°59'.
View on Google Maps.

See reports from other nearby stations

  
Tides and Currents Weather Stations Pressure Air Temp Water Temp Dewpoint Dewpoint Depression Visibility Wind Speed Wind Dir Waves Ship Positions
date/time (UTC)wind fromknots sea level pressurealtimeterstation pressurevisibilityair tempwater tempwave heightnotes
2014-Aug-28 12:41 217 0 gusting 3 31.7
2014-Aug-28 12:27 205 0 gusting 4 31.1
2014-Aug-28 12:10 215 0 gusting 2 30.6
2014-Aug-28 11:55 258 29.4
2014-Aug-28 11:39 216 28.9
2014-Aug-28 11:25 200 28.9
2014-Aug-28 11:09 218 29.4
2014-Aug-28 10:53 252 28.9
2014-Aug-28 10:37 235 28.9
2014-Aug-28 10:23 210 27.2
2014-Aug-28 10:07 201 0 gusting 2 26.1
2014-Aug-28 09:51 096 0 gusting 3 25.6
2014-Aug-28 09:36 215 0 gusting 2 25.6
2014-Aug-28 09:20 235 26.1
2014-Aug-28 09:04 225 24.4
2014-Aug-28 08:49 139 23.3
2014-Aug-28 08:33 219 0 gusting 2 22.8
2014-Aug-28 08:18 154 0 gusting 3 21.7
2014-Aug-28 08:04 120 1 gusting 3 21.1
2014-Aug-28 07:47 208 0 gusting 3 20.6
2014-Aug-28 07:31 190 0 gusting 2 20.0
2014-Aug-28 07:16 155 1 gusting 2 19.4
2014-Aug-28 07:00 221 18.9
2014-Aug-28 06:46 154 0 gusting 2 17.8
2014-Aug-28 06:30 123 17.2
2014-Aug-28 06:15 127 17.2
2014-Aug-28 06:00 126 1 gusting 3 17.2
2014-Aug-28 05:44 113 1 gusting 3 17.2
2014-Aug-28 04:42 149 1 gusting 2 17.2
2014-Aug-28 04:27 145 0 gusting 2 17.2
2014-Aug-28 04:10 103 17.8
2014-Aug-28 03:56 120 17.8
2014-Aug-28 03:40 120 17.8
2014-Aug-28 03:24 107 0 gusting 1 17.8
2014-Aug-28 03:09 127 0 gusting 1 17.8
2014-Aug-28 02:53 098 0 gusting 1 17.8
2014-Aug-28 02:38 118 18.3
2014-Aug-28 02:22 115 18.9
2014-Aug-28 02:08 115 18.9
2014-Aug-28 01:51 117 18.9
2014-Aug-28 01:36 125 0 gusting 2 18.9
2014-Aug-28 01:21 094 18.9
2014-Aug-28 01:06 082 19.4
2014-Aug-28 00:49 037 19.4
2014-Aug-28 00:34 037 19.4
2014-Aug-28 00:18 037 19.4
2014-Aug-28 00:04 037 20.0
2014-Aug-27 23:48 037 20.0
2014-Aug-27 23:32 033 0 gusting 1 20.6
2014-Aug-27 23:17 085 21.1
2014-Aug-27 23:02 098 1 gusting 3 21.1
2014-Aug-27 22:46 100 0 gusting 1 21.1
2014-Aug-27 22:30 215 22.2
2014-Aug-27 22:16 070 22.2
2014-Aug-27 21:59 138 0 gusting 1 22.2
2014-Aug-27 21:44 335 0 gusting 1 22.2
2014-Aug-27 21:29 143 22.2
2014-Aug-27 21:13 071 1 gusting 2 22.8
2014-Aug-27 20:58 098 23.9
2014-Aug-27 20:42 044 0 gusting 1 23.3
2014-Aug-27 20:26 222 0 gusting 6 24.4
2014-Aug-27 20:13 115 3 gusting 5 23.9
2014-Aug-27 19:56 096 24.4
2014-Aug-27 19:41 345 25.0
2014-Aug-27 19:25 354 25.6
2014-Aug-27 19:09 342 0 gusting 3 25.6
2014-Aug-27 18:54 347 2 gusting 4 25.6
2014-Aug-27 18:39 342 2 gusting 4 26.1
2014-Aug-27 18:23 333 1 gusting 3 27.2
2014-Aug-27 18:07 336 0 gusting 3 28.9
2014-Aug-27 17:52 347 30.6
2014-Aug-27 17:36 246 1 gusting 4 30.6
2014-Aug-27 17:22 219 0 gusting 4 30.6
2014-Aug-27 17:05 219 1 gusting 6 30.6
2014-Aug-27 16:50 268 4 gusting 7 30.6
2014-Aug-27 16:34 194 4 gusting 6 30.0
2014-Aug-27 16:20 141 2 gusting 6 30.0
2014-Aug-27 16:03 224 2 gusting 7 30.6
2014-Aug-27 15:49 314 0 gusting 6 30.6
2014-Aug-27 15:32 214 2 gusting 6 30.6
2014-Aug-27 15:17 186 3 gusting 5 30.0
2014-Aug-27 15:01 224 3 gusting 6 30.0
2014-Aug-27 14:46 169 2 gusting 8 30.0
2014-Aug-27 14:30 221 4 gusting 9 30.6
2014-Aug-27 14:16 212 4 gusting 7 30.0
2014-Aug-27 14:00 194 2 gusting 8 30.0
2014-Aug-27 13:44 179 4 gusting 8 29.4
2014-Aug-27 13:30 234 2 gusting 7 29.4
2014-Aug-27 13:14 237 2 gusting 5 30.0
2014-Aug-27 12:58 204 4 gusting 9 29.4
2014-Aug-27 12:42 260 2 gusting 7 29.4
2014-Aug-27 12:27 281 1 gusting 6 29.4
2014-Aug-27 12:11 212 0 gusting 6 29.4
2014-Aug-27 11:57 210 2 gusting 8 28.9
2014-Aug-27 11:40 179 4 gusting 9 29.4
2014-Aug-27 11:26 262 2 gusting 5 29.4
2014-Aug-27 11:09 260 1 gusting 6 28.9
2014-Aug-27 10:55 222 1 gusting 6 28.9
2014-Aug-27 10:39 216 0 gusting 5 28.9
2014-Aug-27 10:23 224 3 gusting 6 27.8
2014-Aug-27 10:07 252 0 gusting 3 28.9
2014-Aug-27 09:52 215 0 gusting 2 28.9
2014-Aug-27 09:37 226 27.2
2014-Aug-27 09:21 278 26.7
2014-Aug-27 09:06 340 26.1
2014-Aug-27 08:50 253 26.7
2014-Aug-27 08:34 252 26.1
2014-Aug-27 08:20 218 25.6
2014-Aug-27 08:03 214 25.0
2014-Aug-27 07:48 119 24.4
2014-Aug-27 07:32 243 23.9
2014-Aug-27 07:17 215 22.8
2014-Aug-27 07:02 150 21.7
2014-Aug-27 06:47 153 19.4
2014-Aug-27 06:31 108 18.3
2014-Aug-27 06:15 105 18.3
2014-Aug-27 05:59 107 17.8
2014-Aug-27 05:44 108 17.8
2014-Aug-27 05:29 107 17.8
2014-Aug-27 05:14 107 18.3
2014-Aug-27 04:59 109 18.3
2014-Aug-27 04:42 108 18.3
2014-Aug-27 04:27 132 18.3
2014-Aug-27 04:11 132 18.9
2014-Aug-27 03:56 089 18.3
2014-Aug-27 03:40 048 18.9
2014-Aug-27 03:25 049 18.9
2014-Aug-27 03:09 049 18.9
2014-Aug-27 02:53 049 18.9
2014-Aug-27 02:39 101 19.4
2014-Aug-27 02:23 101 19.4
2014-Aug-27 02:07 102 19.4
2014-Aug-27 01:52 134 19.4
2014-Aug-27 01:36 132 19.4
2014-Aug-27 01:21 132 19.4
2014-Aug-27 01:06 132 19.4
2014-Aug-27 00:51 133 20.0
2014-Aug-27 00:34 103 20.0
2014-Aug-27 00:20 105 20.6
2014-Aug-27 00:04 115 0 gusting 2 20.6
2014-Aug-26 23:48 111 21.1
2014-Aug-26 23:33 110 21.1
2014-Aug-26 23:18 098 21.7
2014-Aug-26 23:02 099 21.7
2014-Aug-26 22:46 046 21.7
2014-Aug-26 22:32 046 22.2
2014-Aug-26 22:00 046 22.2
2014-Aug-26 21:44 219 22.2
2014-Aug-26 21:29 218 22.8
2014-Aug-26 21:14 265 23.3
2014-Aug-26 20:58 113 23.9
2014-Aug-26 20:43 098 0 gusting 2 24.4
2014-Aug-26 20:27 094 24.4
2014-Aug-26 20:12 198 25.0
2014-Aug-26 19:57 159 25.6
2014-Aug-26 19:40 123 0 gusting 2 26.1
2014-Aug-26 19:25 091 0 gusting 1 26.7
2014-Aug-26 18:55 123 1 gusting 5 27.2
2014-Aug-26 18:39 217 2 gusting 6 27.2
2014-Aug-26 18:23 160 2 gusting 5 28.3
2014-Aug-26 18:09 160 1 gusting 5 28.9
2014-Aug-26 17:52 170 1 gusting 5 28.9
2014-Aug-26 17:37 218 3 gusting 6 29.4
2014-Aug-26 17:22 215 3 gusting 6 29.4
2014-Aug-26 17:06 215 1 gusting 5 29.4
2014-Aug-26 16:51 236 1 gusting 6 29.4
2014-Aug-26 16:35 256 2 gusting 6 30.0
2014-Aug-26 16:21 212 2 gusting 7 30.0
2014-Aug-26 16:04 212 2 gusting 7 30.0
2014-Aug-26 15:49 055 5 gusting 9 30.6
2014-Aug-26 15:33 208 2 gusting 8 30.6
2014-Aug-26 15:18 212 4 gusting 9 30.0
2014-Aug-26 15:02 236 5 gusting 10 30.6
2014-Aug-26 14:47 242 4 gusting 12 30.6
2014-Aug-26 14:31 237 4 gusting 8 30.0
2014-Aug-26 14:17 222 2 gusting 10 30.0
2014-Aug-26 14:00 201 4 gusting 9 30.6
2014-Aug-26 13:45 205 5 gusting 11 30.0
2014-Aug-26 13:30 236 6 gusting 10 30.0
2014-Aug-26 13:14 277 5 gusting 10 29.4